Weather reports worldwide

Advertisment
Estaca de Bares, Spain (8004): temperature & dewpoint: 13.08.2019 00:00:00 - 19.08.2019 00:00:00 (CEST)Estaca de Bares, Spain (8004): wind speed & gusts: 13.08.2019 00:00:00 - 19.08.2019 00:00:00 (CEST)Estaca de Bares, Spain (8004): wind direction: 13.08.2019 00:00:00 - 19.08.2019 00:00:00 (CEST)Estaca de Bares, Spain (8004): reduced air pressure: 13.08.2019 00:00:00 - 19.08.2019 00:00:00 (CEST)Estaca de Bares, Spain (8004): visibility: 13.08.2019 00:00:00 - 19.08.2019 00:00:00 (CEST)Estaca de Bares, Spain (8004): sunshine duration: 13.08.2019 00:00:00 - 19.08.2019 00:00:00 (CEST)Estaca de Bares, Spain (8004): precipitation: 13.08.2019 00:00:00 - 19.08.2019 00:00:00 (CEST)
Date & Time tt [°C] td [°C] ff [km/h] ff [kn] fx [km/h] fx [kn] dd ppp [hPa] vv [km] sd [min] rr [mm]
19.08.2019 00:00:00 - - - - - - - - - - -
18.08.2019 23:00:00 17,5 10,4 12 6 25 13 WNW 1019,3 20 0 0,0
18.08.2019 22:00:00 17,7 11,0 10 6 26 14 WNW 1018,6 20 2 0,0
18.08.2019 21:00:00 18,7 11,0 18 10 31 17 WNW 1018,0 20 55 0,0
18.08.2019 20:00:00 19,7 9,6 22 12 33 18 WNW 1017,7 20 60 -
18.08.2019 19:00:00 20,1 10,5 24 13 33 18 WNW 1017,3 20 60 0,0
18.08.2019 18:00:00 20,8 11,1 23 12 36 20 WNW 1017,1 20 60 0,0
18.08.2019 17:00:00 20,2 10,9 21 12 34 18 WNW 1016,8 20 60 0,0
18.08.2019 16:00:00 21,1 11,1 15 8 25 13 WNW 1016,8 20 60 0,0
18.08.2019 15:00:00 20,9 11,8 16 8 29 16 WNW 1016,5 20 60 0,0
18.08.2019 14:00:00 20,9 12,8 14 8 27 15 WNW 1016,2 20 60 -
18.08.2019 13:00:00 19,3 13,1 19 10 28 15 WNW 1016,2 20 29 0,0
18.08.2019 12:00:00 18,9 12,2 12 7 27 15 WNW 1015,8 20 0 0,0
18.08.2019 11:00:00 17,8 11,6 11 6 26 14 NW 1015,2 20 0 0,0
18.08.2019 10:00:00 17,2 12,3 13 7 33 18 NW 1014,4 20 0 0,0
18.08.2019 09:00:00 16,3 13,1 18 10 42 23 NNW 1013,2 20 0 0,0
18.08.2019 08:00:00 17,1 15,1 18 10 45 24 NW 1012,6 20 0 -
18.08.2019 07:00:00 17,2 15,7 18 10 39 21 WNW 1011,9 20 0 0,4
18.08.2019 06:00:00 16,7 15,9 12 6 45 24 WNW 1011,3 20 0 5,6
18.08.2019 05:00:00 17,2 16,2 24 13 65 35 NW 1010,5 20 0 5,4
18.08.2019 04:00:00 20,2 17,1 50 27 62 33 W 1009,0 20 0 1,2
18.08.2019 03:00:00 21,7 15,8 41 22 65 35 W 1008,7 20 0 0,0
18.08.2019 02:00:00 21,5 15,6 46 25 67 36 W 1008,7 20 0 -
18.08.2019 01:00:00 21,8 15,6 54 29 74 40 WSW 1008,5 20 0 0,0
18.08.2019 00:00:00 21,9 15,5 56 30 75 41 WSW 1008,8 20 0 0,0
17.08.2019 23:00:00 21,5 16,0 54 29 68 37 W 1009,5 20 0 0,0
17.08.2019 22:00:00 21,7 16,4 47 26 68 37 W 1009,1 20 7 0,0
17.08.2019 21:00:00 22,9 17,1 44 24 59 32 W 1009,5 20 49 0,0
17.08.2019 20:00:00 23,3 17,9 48 26 61 33 W 1009,7 20 10 -
17.08.2019 19:00:00 22,5 17,9 49 26 57 31 W 1010,3 20 5 0,0
17.08.2019 18:00:00 24,2 17,7 47 25 66 36 W 1010,4 20 49 0,0
17.08.2019 17:00:00 25,1 17,3 55 30 67 36 W 1010,3 20 57 0,0
17.08.2019 16:00:00 25,7 17,9 42 23 56 30 W 1011,0 20 55 0,0
17.08.2019 15:00:00 25,1 17,8 40 22 53 28 W 1011,5 20 35 0,0
17.08.2019 14:00:00 26,1 17,7 40 21 57 31 W 1012,1 20 53 -
17.08.2019 13:00:00 24,6 17,6 40 22 56 30 W 1012,6 20 55 0,0
17.08.2019 12:00:00 23,4 17,4 44 24 56 30 W 1012,7 20 60 0,0
17.08.2019 11:00:00 22,3 17,5 48 26 56 31 W 1012,7 20 37 0,0
17.08.2019 10:00:00 21,7 17,3 44 24 61 33 W 1012,8 20 26 0,0
17.08.2019 09:00:00 20,8 16,6 53 28 62 34 WSW 1012,6 20 0 0,0
17.08.2019 08:00:00 20,8 16,0 46 25 59 32 W 1012,6 20 0 -
17.08.2019 07:00:00 20,7 15,7 51 28 74 40 WSW 1012,2 20 0 0,0
17.08.2019 06:00:00 20,2 15,6 48 26 74 40 W 1012,4 20 0 0,0
17.08.2019 05:00:00 20,1 15,5 50 27 67 36 WSW 1012,5 20 0 0,0
17.08.2019 04:00:00 20,0 15,0 52 28 67 36 WSW 1013,1 20 0 0,0
17.08.2019 03:00:00 19,7 15,3 46 25 61 33 W 1014,1 20 0 0,0
17.08.2019 02:00:00 19,5 15,5 46 25 57 31 W 1014,2 20 0 -
17.08.2019 01:00:00 19,7 15,8 44 24 56 30 W 1014,5 20 0 0,0
17.08.2019 00:00:00 19,7 15,8 37 20 49 27 WSW 1015,1 20 0 0,0
16.08.2019 23:00:00 20,0 15,9 31 17 42 23 W 1015,7 20 0 0,0
16.08.2019 22:00:00 19,8 16,2 26 14 45 25 W 1015,4 20 2 0,0
16.08.2019 21:00:00 20,4 16,0 41 22 57 31 W 1014,9 20 25 0,0
16.08.2019 20:00:00 22,2 16,2 34 19 44 24 W 1015,0 20 60 -
16.08.2019 19:00:00 22,3 15,9 36 19 55 30 W 1015,2 20 30 0,0
16.08.2019 18:00:00 21,4 16,0 55 30 65 35 W 1015,2 20 60 0,0
16.08.2019 17:00:00 22,2 15,8 51 28 61 33 WNW 1015,1 20 60 0,0
16.08.2019 16:00:00 22,6 15,0 48 26 64 35 W 1015,9 20 60 0,0
16.08.2019 15:00:00 21,4 14,3 58 32 65 35 W 1015,7 20 60 0,0
16.08.2019 14:00:00 21,5 14,4 44 24 60 33 W 1016,3 20 60 -
16.08.2019 13:00:00 20,7 14,1 45 24 54 29 WNW 1016,5 20 60 0,0
16.08.2019 12:00:00 22,9 14,7 21 11 29 16 W 1017,1 20 60 0,0
16.08.2019 11:00:00 20,9 14,8 22 12 31 17 W 1017,5 20 60 0,0
16.08.2019 10:00:00 19,1 14,1 31 17 37 20 W 1017,5 20 60 0,0
16.08.2019 09:00:00 17,3 13,7 27 14 33 18 WSW 1017,5 20 60 0,0
16.08.2019 08:00:00 15,7 13,2 14 8 17 9 W 1018,1 20 15 -
16.08.2019 07:00:00 15,8 12,7 14 8 18 10 W 1018,0 20 0 0,0
16.08.2019 06:00:00 15,6 12,3 10 5 14 8 WSW 1018,0 20 0 0,0
16.08.2019 05:00:00 16,5 12,2 5 3 15 8 W 1018,1 20 0 0,0
16.08.2019 04:00:00 16,3 11,9 13 7 20 11 SE 1018,5 20 0 0,0
16.08.2019 03:00:00 16,5 12,6 3 2 13 7 NW 1019,2 20 0 0,0
16.08.2019 02:00:00 16,4 12,3 11 6 22 12 SSE 1019,5 20 0 -
16.08.2019 01:00:00 17,1 12,2 15 8 29 16 SE 1019,9 20 0 0,0
16.08.2019 00:00:00 17,4 12,5 21 11 29 16 SE 1020,0 20 0 0,0
15.08.2019 23:00:00 17,8 12,4 19 11 33 18 ESE 1020,7 20 0 0,0
15.08.2019 22:00:00 18,2 12,0 24 13 32 17 ESE 1020,5 20 14 0,0
15.08.2019 21:00:00 18,8 11,6 16 9 31 17 E 1020,8 20 60 0,0
15.08.2019 20:00:00 19,4 11,7 21 11 35 19 E 1021,1 20 60 -
15.08.2019 19:00:00 20,1 12,1 20 11 32 17 E 1020,8 20 60 0,0
15.08.2019 18:00:00 20,6 11,8 21 11 28 15 E 1021,1 20 60 0,0
15.08.2019 17:00:00 21,2 11,8 20 11 27 15 E 1021,4 20 60 0,0
15.08.2019 16:00:00 21,3 11,9 16 9 22 12 ENE 1022,0 20 60 0,0
15.08.2019 15:00:00 21,5 12,1 14 8 21 11 E 1022,2 20 60 0,0
15.08.2019 14:00:00 22,4 13,0 12 6 18 10 E 1022,2 20 60 -
15.08.2019 13:00:00 21,0 12,6 11 6 19 10 ENE 1022,4 20 60 0,0
15.08.2019 12:00:00 20,9 13,1 9 5 18 10 NE 1022,4 20 60 0,0
15.08.2019 11:00:00 20,1 14,4 5 3 9 5 N 1022,4 20 60 0,0
15.08.2019 10:00:00 19,6 13,6 4 2 8 4 ENE 1022,2 20 33 0,0
15.08.2019 09:00:00 17,9 13,4 3 1 6 4 W 1022,0 20 7 0,0
15.08.2019 08:00:00 17,2 12,5 4 2 10 5 WSW 1021,6 20 0 -
15.08.2019 07:00:00 17,2 12,5 8 4 16 9 SW 1021,4 20 0 0,0
15.08.2019 06:00:00 17,1 12,6 10 5 17 9 WSW 1021,6 20 0 0,0
15.08.2019 05:00:00 17,1 13,1 13 7 18 10 W 1021,5 20 0 0,0
15.08.2019 04:00:00 17,1 13,1 12 7 23 12 W 1021,6 20 0 0,0
15.08.2019 03:00:00 - - - - - - - - - - -
15.08.2019 02:00:00 17,5 13,5 16 9 31 17 W 1021,9 20 0 -
15.08.2019 01:00:00 17,5 13,7 25 14 34 18 WNW 1021,6 20 0 0,0
15.08.2019 00:00:00 17,3 14,4 22 12 34 18 W 1021,6 20 0 0,0
14.08.2019 23:00:00 17,0 14,6 26 14 42 23 WNW 1021,5 20 0 0,0
14.08.2019 22:00:00 17,4 16,2 24 13 37 20 W 1020,8 20 0 0,0
14.08.2019 21:00:00 17,4 16,4 30 16 46 25 WNW 1020,3 20 0 0,2
14.08.2019 20:00:00 18,5 17,0 16 9 40 21 WNW 1020,0 20 0 -
14.08.2019 19:00:00 19,5 17,5 39 21 49 26 W 1019,6 20 0 0,0
14.08.2019 18:00:00 20,0 17,4 29 16 46 25 W 1019,5 20 0 0,0
14.08.2019 17:00:00 20,4 16,8 42 23 50 27 W 1019,2 20 0 0,0
14.08.2019 16:00:00 21,6 17,2 37 20 48 26 W 1019,2 20 0 0,0
14.08.2019 15:00:00 21,9 16,8 42 23 52 28 W 1019,1 20 2 0,0
14.08.2019 14:00:00 23,3 16,6 42 23 58 31 W 1019,0 20 47 -
14.08.2019 13:00:00 23,0 16,3 44 24 58 32 W 1018,7 20 44 0,0
14.08.2019 12:00:00 20,1 15,5 41 22 58 31 WSW 1018,8 20 0 0,0
14.08.2019 11:00:00 19,1 15,2 42 23 53 28 W 1018,7 20 10 0,0
14.08.2019 10:00:00 19,4 14,6 38 20 51 27 W 1018,5 20 3 0,0
14.08.2019 09:00:00 18,6 12,3 36 20 44 24 W 1018,2 20 0 0,0
14.08.2019 08:00:00 18,4 10,8 31 17 48 26 W 1018,0 20 0 -
14.08.2019 07:00:00 18,3 8,8 36 19 44 24 WSW 1017,8 20 0 0,0
14.08.2019 06:00:00 18,3 8,0 35 19 45 25 WSW 1017,8 20 0 0,0
14.08.2019 05:00:00 16,7 11,7 30 16 34 19 W 1018,8 20 0 0,0
14.08.2019 04:00:00 16,8 11,6 27 15 36 20 W 1018,6 20 0 0,0
14.08.2019 03:00:00 16,4 12,7 19 10 24 13 WSW 1019,7 20 0 0,0
14.08.2019 02:00:00 16,8 13,2 14 8 17 9 W 1020,0 20 0 -
14.08.2019 01:00:00 17,1 12,8 8 5 16 9 WSW 1019,9 20 0 0,0
14.08.2019 00:00:00 17,1 13,3 12 7 21 12 SSE 1020,4 20 0 0,0
13.08.2019 23:00:00 17,9 12,7 11 6 22 12 SE 1021,1 20 0 0,0
13.08.2019 22:00:00 17,9 12,7 15 8 20 11 SE 1020,6 20 0 0,0
13.08.2019 21:00:00 18,5 12,4 14 8 26 14 ESE 1020,6 20 41 0,0
13.08.2019 20:00:00 19,7 13,0 16 9 25 14 E 1020,5 20 60 -
13.08.2019 19:00:00 19,8 12,7 17 9 29 16 E 1020,8 20 60 0,0
13.08.2019 18:00:00 20,3 12,5 20 11 29 16 E 1020,8 20 60 0,0
13.08.2019 17:00:00 20,5 13,0 20 11 34 19 E 1020,9 20 60 0,0
13.08.2019 16:00:00 20,5 12,7 23 12 36 19 E 1021,3 20 60 0,0
13.08.2019 15:00:00 21,0 13,2 20 11 29 16 E 1021,6 20 60 0,0
13.08.2019 14:00:00 21,3 12,7 16 9 23 13 E 1021,9 20 60 -
13.08.2019 13:00:00 20,4 13,2 11 6 17 9 ENE 1022,1 20 60 0,0
13.08.2019 12:00:00 19,1 12,6 6 4 12 7 NE 1022,4 20 57 0,0
13.08.2019 11:00:00 18,8 13,3 4 2 8 5 W 1022,6 20 35 0,0
13.08.2019 10:00:00 16,7 13,1 7 4 11 6 E 1022,3 20 3 0,0
13.08.2019 09:00:00 15,4 12,0 5 3 6 4 W 1022,6 20 9 0,0
13.08.2019 08:00:00 14,7 11,3 7 4 12 6 W 1022,4 20 0 -
13.08.2019 07:00:00 15,2 11,3 3 1 5 3 W 1022,0 20 0 0,0
13.08.2019 06:00:00 15,0 11,3 4 2 10 5 WSW 1022,1 20 0 0,0
13.08.2019 05:00:00 15,7 11,1 6 4 15 8 NE 1022,0 20 0 0,0
13.08.2019 04:00:00 15,5 10,5 13 7 17 9 E 1022,2 20 0 0,0
13.08.2019 03:00:00 15,7 10,9 12 6 20 11 ESE 1022,9 20 0 0,0
13.08.2019 02:00:00 16,1 10,4 12 6 25 13 E 1023,7 20 0 -
13.08.2019 01:00:00 16,6 10,6 18 10 25 13 ENE 1023,9 20 0 0,0
13.08.2019 00:00:00 17,0 10,6 19 10 22 12 E 1024,1 20 0 0,0

tt = temperature
td = dewpoint
ff = wind speed
fx = gusts
dd = wind direction
ppp = reduced air pressure
vv = visibility
sd = sunshine duration
rr = precipitation

Next stations